Time,TemperatureF,DewpointF,PressureIn,WindDirection,WindDirectionDegrees,WindSpeedMPH,WindSpeedGustMPH,Humidity,HourlyPrecipIn,Conditions,Clouds,dailyrainin,SolarRadiationWatts/m^2,SoftwareType,DateUTC
2013-03-18 00:00:00,29.9,11.2,30.32,North,355,5.0,10.0,45,0.00,,---,0.00,0.00,VWS V14.01,2013-03-18 04:00:00,
2013-03-18 00:01:00,29.8,11.1,30.32,NNW,333,6.0,7.0,45,0.00,,---,0.00,0.00,VWS V14.01,2013-03-18 04:01:00,
2013-03-18 00:06:00,29.7,11.0,30.32,NW,317,5.0,9.0,45,0.00,,---,0.00,0.00,VWS V14.01,2013-03-18 04:06:00,
2013-03-18 00:11:00,29.5,10.8,30.33,North,360,6.0,10.0,45,0.00,,---,0.00,0.00,VWS V14.01,2013-03-18 04:11:00,
2013-03-18 00:15:00,29.4,11.2,30.32,North,351,4.0,11.0,46,0.00,,,0.00,0.00,VWS V14.01,2013-03-18 04:15:00,
2013-03-18 00:16:00,29.4,11.2,30.32,NW,314,3.0,7.0,46,0.00,,---,0.00,0.00,VWS V14.01,2013-03-18 04:16:00,
2013-03-18 00:21:00,29.3,11.1,30.32,North,349,8.0,9.0,46,0.00,,---,0.00,0.00,VWS V14.01,2013-03-18 04:21:00,
2013-03-18 00:27:00,29.2,11.0,30.32,NNW,343,6.0,9.0,46,0.00,,---,0.00,0.00,VWS V14.01,2013-03-18 04:27:00,
2013-03-18 00:30:00,30.5,11.2,30.31,NNW,348,2.0,7.0,44,0.00,,,0.00,0.00,VWS V14.01,2013-03-18 04:30:00,
2013-03-18 00:32:00,29.2,11.5,30.32,NW,316,5.0,7.0,47,0.00,,---,0.00,0.00,VWS V14.01,2013-03-18 04:32:00,
2013-03-18 00:37:00,29.0,11.3,30.33,NNW,336,8.0,11.0,47,0.00,,---,0.00,0.00,VWS V14.01,2013-03-18 04:37:00,
2013-03-18 00:42:00,29.0,11.8,30.32,NNW,327,6.0,11.0,48,0.00,,---,0.00,0.00,VWS V14.01,2013-03-18 04:42:00,
2013-03-18 00:45:00,30.2,11.4,30.32,NNW,333,3.0,9.0,45,0.00,,,0.00,0.00,VWS V14.01,2013-03-18 04:45:00,
2013-03-18 00:47:00,28.9,12.1,30.33,NW,316,3.0,6.0,49,0.00,,---,0.00,0.00,VWS V14.01,2013-03-18 04:47:00,
2013-03-18 00:52:00,28.8,12.1,30.33,NNW,348,4.0,6.0,49,0.00,,---,0.00,0.00,VWS V14.01,2013-03-18 04:52:00,
2013-03-18 00:57:00,28.9,11.7,30.33,NNW,347,3.0,11.0,48,0.00,,---,0.00,0.00,VWS V14.01,2013-03-18 04:57:00,
2013-03-18 01:00:00,29.9,11.2,30.32,North,355,7.0,10.0,45,0.00,,,0.00,0.00,VWS V14.01,2013-03-18 05:00:00,
2013-03-18 01:02:00,29.0,11.8,30.33,NNW,331,7.0,9.0,48,0.00,,---,0.00,0.00,VWS V14.01,2013-03-18 05:02:00,
2013-03-18 01:07:00,29.0,12.2,30.34,NNW,336,6.0,9.0,49,0.00,,---,0.00,0.00,VWS V14.01,2013-03-18 05:07:00,
2013-03-18 01:12:00,28.9,12.1,30.34,North,5,1.0,9.0,49,0.00,,---,0.00,0.00,VWS V14.01,2013-03-18 05:12:00,
2013-03-18 01:15:00,28.8,12.1,30.34,North,5,5.0,9.0,49,0.00,,,0.00,0.00,VWS V14.01,2013-03-18 05:15:00,
2013-03-18 01:17:00,28.8,12.1,30.34,NNW,344,2.0,7.0,49,0.00,,---,0.00,0.00,VWS V14.01,2013-03-18 05:17:00,
2013-03-18 01:22:00,28.8,12.5,30.35,North,11,2.0,8.0,50,0.00,,---,0.00,0.00,VWS V14.01,2013-03-18 05:22:00,
2013-03-18 01:27:00,28.6,11.9,30.35,North,351,5.0,8.0,49,0.00,,---,0.00,0.00,VWS V14.01,2013-03-18 05:27:00,
2013-03-18 01:30:00,28.6,11.9,30.35,NNW,328,5.0,9.0,49,0.00,,,0.00,0.00,VWS V14.01,2013-03-18 05:30:00,
2013-03-18 01:32:00,28.5,11.0,30.35,NNW,331,5.0,-999.0,49,-99.99,,,0.00,0,weatherlink.com 1.10,2013-03-18 05:32:00,
2013-03-18 01:37:00,28.4,12.1,30.35,NNW,334,5.0,11.0,50,0.00,,---,0.00,0.00,VWS V14.01,2013-03-18 05:37:00,
2013-03-18 01:42:00,28.3,12.1,30.35,NNW,333,6.0,11.0,50,0.00,,---,0.00,0.00,VWS V14.01,2013-03-18 05:42:00,
2013-03-18 01:45:00,28.2,12.0,30.35,North,349,7.0,11.0,50,0.00,,,0.00,0.00,VWS V14.01,2013-03-18 05:45:00,
2013-03-18 01:47:00,28.1,11.9,30.35,North,355,10.0,12.0,50,0.00,,---,0.00,0.00,VWS V14.01,2013-03-18 05:47:00,
2013-03-18 01:52:00,28.0,11.8,30.36,NW,325,4.0,12.0,50,0.00,,---,0.00,0.00,VWS V14.01,2013-03-18 05:52:00,
2013-03-18 01:57:00,27.8,12.0,30.36,NNW,344,6.0,12.0,51,0.00,,---,0.00,0.00,VWS V14.01,2013-03-18 05:57:00,
2013-03-18 02:00:00,29.0,11.8,30.33,NNW,346,9.0,11.0,48,0.00,,,0.00,0.00,VWS V14.01,2013-03-18 06:00:00,
2013-03-18 02:02:00,27.5,11.8,30.36,North,355,9.0,13.0,51,0.00,,---,0.00,0.00,VWS V14.01,2013-03-18 06:02:00,
2013-03-18 02:07:00,27.5,11.8,30.36,North,350,4.0,13.0,51,0.00,,---,0.00,0.00,VWS V14.01,2013-03-18 06:07:00,
2013-03-18 02:12:00,27.4,10.8,30.36,NNE,17,7.0,13.0,49,0.00,,---,0.00,0.00,VWS V14.01,2013-03-18 06:12:00,
2013-03-18 02:17:00,27.3,11.1,30.37,NNW,328,9.0,11.0,50,0.00,,---,0.00,0.00,VWS V14.01,2013-03-18 06:17:00,
2013-03-18 02:22:00,27.3,11.1,30.36,NNE,12,7.0,11.0,50,0.00,,---,0.00,0.00,VWS V14.01,2013-03-18 06:22:00,
2013-03-18 02:27:00,27.3,10.7,30.36,North,5,8.0,13.0,49,0.00,,---,0.00,0.00,VWS V14.01,2013-03-18 06:27:00,
2013-03-18 02:30:00,27.2,11.0,30.36,NW,315,7.0,13.0,50,0.00,,,0.00,0.00,VWS V14.01,2013-03-18 06:30:00,
2013-03-18 02:32:00,27.2,11.0,30.37,NW,324,7.0,10.0,50,0.00,,---,0.00,0.00,VWS V14.01,2013-03-18 06:32:00,
2013-03-18 02:37:00,27.1,10.9,30.37,North,11,7.0,10.0,50,0.00,,---,0.00,0.00,VWS V14.01,2013-03-18 06:37:00,
2013-03-18 02:42:00,27.0,11.3,30.37,NW,326,7.0,11.0,51,0.00,,---,0.00,0.00,VWS V14.01,2013-03-18 06:42:00,
2013-03-18 02:45:00,28.2,12.0,30.35,North,349,7.0,11.0,50,0.00,,,0.00,0.00,VWS V14.01,2013-03-18 06:45:00,
2013-03-18 02:47:00,27.0,11.3,30.37,NNW,342,8.0,10.0,51,0.00,,---,0.00,0.00,VWS V14.01,2013-03-18 06:47:00,
2013-03-18 02:52:00,27.0,11.3,30.37,NNW,346,7.0,10.0,51,0.00,,---,0.00,0.00,VWS V14.01,2013-03-18 06:52:00,
2013-03-18 02:57:00,27.0,11.3,30.38,North,355,7.0,11.0,51,0.00,,---,0.00,0.00,VWS V14.01,2013-03-18 06:57:00,
2013-03-18 03:00:00,26.9,11.2,30.38,NW,315,9.0,12.0,51,0.00,,,0.00,0.00,VWS V14.01,2013-03-18 07:00:00,
2013-03-18 03:02:00,26.8,11.1,30.38,North,360,3.0,9.0,51,0.00,,---,0.00,0.00,VWS V14.01,2013-03-18 07:02:00,
2013-03-18 03:07:00,26.6,10.5,30.38,North,351,5.0,10.0,50,0.00,,---,0.00,0.00,VWS V14.01,2013-03-18 07:07:00,
2013-03-18 03:12:00,26.5,10.4,30.38,NNW,344,9.0,12.0,50,0.00,,---,0.00,0.00,VWS V14.01,2013-03-18 07:12:00,
2013-03-18 03:15:00,27.4,11.2,30.36,NNW,337,3.0,13.0,50,0.00,,,0.00,0.00,VWS V14.01,2013-03-18 07:15:00,
2013-03-18 03:17:00,26.4,9.8,30.38,NNW,327,7.0,11.0,49,0.00,,---,0.00,0.00,VWS V14.01,2013-03-18 07:17:00,
2013-03-18 03:22:00,26.3,8.8,30.38,North,10,6.0,13.0,47,0.00,,---,0.00,0.00,VWS V14.01,2013-03-18 07:22:00,
2013-03-18 03:27:00,26.1,8.6,30.39,NNW,344,8.0,13.0,47,0.00,,---,0.00,0.00,VWS V14.01,2013-03-18 07:27:00,
2013-03-18 03:30:00,26.1,8.2,30.39,North,355,8.0,13.0,46,0.00,,,0.00,0.00,VWS V14.01,2013-03-18 07:30:00,
2013-03-18 03:32:00,26.0,8.1,30.39,North,350,10.0,11.0,46,0.00,,---,0.00,0.00,VWS V14.01,2013-03-18 07:32:00,
2013-03-18 03:37:00,25.9,7.0,30.39,North,360,6.0,12.0,44,0.00,,---,0.00,0.00,VWS V14.01,2013-03-18 07:37:00,
2013-03-18 03:42:00,25.7,6.3,30.39,NNW,336,10.0,13.0,43,0.00,,---,0.00,0.00,VWS V14.01,2013-03-18 07:42:00,
2013-03-18 03:45:00,25.7,5.8,30.39,NNE,24,9.0,15.0,42,0.00,,,0.00,0.00,VWS V14.01,2013-03-18 07:45:00,
2013-03-18 03:47:00,25.7,5.3,30.39,NNW,336,11.0,12.0,41,0.00,,---,0.00,0.00,VWS V14.01,2013-03-18 07:47:00,
2013-03-18 03:52:00,25.6,5.7,30.39,North,360,2.0,15.0,42,0.00,,---,0.00,0.00,VWS V14.01,2013-03-18 07:52:00,
2013-03-18 03:57:00,25.4,5.5,30.39,NNW,346,6.0,15.0,42,0.00,,---,0.00,0.00,VWS V14.01,2013-03-18 07:57:00,
2013-03-18 04:00:00,26.9,11.2,30.38,NW,315,9.0,12.0,51,0.00,,,0.00,0.00,VWS V14.01,2013-03-18 08:00:00,
2013-03-18 04:02:00,25.3,5.4,30.40,NNW,341,2.0,8.0,42,0.00,,---,0.00,0.00,VWS V14.01,2013-03-18 08:02:00,
2013-03-18 04:07:00,25.2,5.3,30.40,NNW,338,4.0,10.0,42,0.00,,---,0.00,0.00,VWS V14.01,2013-03-18 08:07:00,
2013-03-18 04:12:00,25.1,5.2,30.40,NNW,329,6.0,13.0,42,0.00,,---,0.00,0.00,VWS V14.01,2013-03-18 08:12:00,
2013-03-18 04:15:00,25.0,5.7,30.39,NNW,329,12.0,13.0,43,0.00,,,0.00,0.00,VWS V14.01,2013-03-18 08:15:00,
2013-03-18 04:17:00,25.0,5.7,30.40,North,360,9.0,12.0,43,0.00,,---,0.00,0.00,VWS V14.01,2013-03-18 08:17:00,
2013-03-18 04:22:00,24.9,5.6,30.40,North,11,8.0,12.0,43,0.00,,---,0.00,0.00,VWS V14.01,2013-03-18 08:22:00,
2013-03-18 04:27:00,24.9,6.1,30.40,NNW,328,4.0,12.0,44,0.00,,---,0.00,0.00,VWS V14.01,2013-03-18 08:27:00,
2013-03-18 04:30:00,24.8,6.0,30.41,North,355,8.0,13.0,44,0.00,,,0.00,0.00,VWS V14.01,2013-03-18 08:30:00,
2013-03-18 04:32:00,24.8,6.0,30.40,North,355,2.0,8.0,44,0.00,,---,0.00,0.00,VWS V14.01,2013-03-18 08:32:00,
2013-03-18 04:38:00,24.6,6.3,30.40,NNW,335,5.0,10.0,45,0.00,,---,0.00,0.00,VWS V14.01,2013-03-18 08:38:00,
2013-03-18 04:43:00,24.5,5.7,30.40,NNW,344,10.0,13.0,44,0.00,,---,0.00,0.00,VWS V14.01,2013-03-18 08:43:00,
2013-03-18 04:45:00,25.7,5.8,30.39,NNE,24,9.0,15.0,42,0.00,,,0.00,0.00,VWS V14.01,2013-03-18 08:45:00,
2013-03-18 04:48:00,24.5,5.7,30.41,NNW,340,7.0,11.0,44,0.00,,---,0.00,0.00,VWS V14.01,2013-03-18 08:48:00,
2013-03-18 04:53:00,24.5,5.7,30.41,North,9,7.0,11.0,44,0.00,,---,0.00,0.00,VWS V14.01,2013-03-18 08:53:00,
2013-03-18 04:58:00,24.3,5.5,30.41,North,360,9.0,11.0,44,0.00,,---,0.00,0.00,VWS V14.01,2013-03-18 08:58:00,
2013-03-18 05:00:00,25.4,5.5,30.40,NNE,19,5.0,15.0,42,0.00,,,0.00,0.00,VWS V14.01,2013-03-18 09:00:00,
2013-03-18 05:03:00,24.3,5.5,30.41,NNW,341,4.0,10.0,44,0.00,,---,0.00,0.00,VWS V14.01,2013-03-18 09:03:00,
2013-03-18 05:08:00,24.1,5.8,30.41,NNW,339,6.0,10.0,45,0.00,,---,0.00,0.00,VWS V14.01,2013-03-18 09:08:00,
2013-03-18 05:13:00,24.1,6.3,30.41,NNW,337,6.0,10.0,46,0.00,,---,0.00,0.00,VWS V14.01,2013-03-18 09:13:00,
2013-03-18 05:15:00,23.9,6.6,30.41,North,355,6.0,10.0,47,0.00,,,0.00,0.00,VWS V14.01,2013-03-18 09:15:00,
2013-03-18 05:18:00,23.9,6.6,30.41,NNW,345,9.0,12.0,47,0.00,,---,0.00,0.00,VWS V14.01,2013-03-18 09:18:00,
2013-03-18 05:23:00,23.9,6.1,30.41,North,355,6.0,12.0,46,0.00,,---,0.00,0.00,VWS V14.01,2013-03-18 09:23:00,
2013-03-18 05:28:00,23.8,6.1,30.41,NNW,345,13.0,13.0,46,0.00,,---,0.00,0.00,VWS V14.01,2013-03-18 09:28:00,
2013-03-18 05:30:00,24.8,6.0,30.41,North,355,8.0,13.0,44,0.00,,,0.00,0.00,VWS V14.01,2013-03-18 09:30:00,
2013-03-18 05:33:00,23.7,6.0,30.42,NNW,348,9.0,14.0,46,0.00,,---,0.00,0.00,VWS V14.01,2013-03-18 09:33:00,
2013-03-18 05:38:00,23.6,5.4,30.42,NNW,348,7.0,14.0,45,0.00,,---,0.00,0.00,VWS V14.01,2013-03-18 09:38:00,
2013-03-18 05:43:00,23.5,5.8,30.43,NW,317,6.0,14.0,46,0.00,,---,0.00,0.00,VWS V14.01,2013-03-18 09:43:00,
2013-03-18 05:45:00,23.4,5.7,30.43,NNW,345,9.0,14.0,46,0.00,,,0.00,0.00,VWS V14.01,2013-03-18 09:45:00,
2013-03-18 05:48:00,23.4,5.7,30.43,North,5,7.0,9.0,46,0.00,,---,0.00,0.00,VWS V14.01,2013-03-18 09:48:00,
2013-03-18 05:53:00,23.2,5.0,30.43,North,9,7.0,12.0,45,0.00,,---,0.00,0.00,VWS V14.01,2013-03-18 09:53:00,
2013-03-18 05:58:00,23.1,4.9,30.43,NNW,334,9.0,12.0,45,0.00,,---,0.00,0.00,VWS V14.01,2013-03-18 09:58:00,
2013-03-18 06:00:00,24.3,5.5,30.41,NNW,348,2.0,11.0,44,0.00,,,0.00,0.00,VWS V14.01,2013-03-18 10:00:00,
2013-03-18 06:03:00,23.0,4.8,30.43,NNW,328,2.0,7.0,45,0.00,,---,0.00,0.00,VWS V14.01,2013-03-18 10:03:00,
2013-03-18 06:08:00,22.9,4.8,30.44,NNW,337,2.0,9.0,45,0.00,,---,0.00,0.00,VWS V14.01,2013-03-18 10:08:00,
2013-03-18 06:13:00,22.8,5.1,30.44,North,355,4.0,9.0,46,0.00,,---,0.00,0.00,VWS V14.01,2013-03-18 10:13:00,
2013-03-18 06:15:00,22.7,5.0,30.44,NW,311,2.0,9.0,46,0.00,,,0.00,0.00,VWS V14.01,2013-03-18 10:15:00,
2013-03-18 06:18:00,22.7,5.0,30.44,NNW,336,5.0,7.0,46,0.00,,---,0.00,0.00,VWS V14.01,2013-03-18 10:18:00,
2013-03-18 06:23:00,22.7,4.6,30.45,North,355,3.0,10.0,45,0.00,,---,0.00,0.00,VWS V14.01,2013-03-18 10:23:00,
2013-03-18 06:28:00,22.6,4.9,30.44,NW,323,4.0,10.0,46,0.00,,---,0.00,0.00,VWS V14.01,2013-03-18 10:28:00,
2013-03-18 06:30:00,22.6,4.9,30.45,NW,323,4.0,10.0,46,0.00,,,0.00,0.00,VWS V14.01,2013-03-18 10:30:00,
2013-03-18 06:33:00,22.5,4.9,30.45,NNW,333,2.0,6.0,46,0.00,,---,0.00,0.00,VWS V14.01,2013-03-18 10:33:00,
2013-03-18 06:38:00,22.5,4.9,30.45,NNW,342,5.0,6.0,46,0.00,,---,0.00,0.00,VWS V14.01,2013-03-18 10:38:00,
2013-03-18 06:43:00,22.4,4.8,30.45,NNE,12,3.0,6.0,46,0.00,,---,0.00,0.00,VWS V14.01,2013-03-18 10:43:00,
2013-03-18 06:48:00,22.4,4.8,30.45,NNW,330,3.0,11.0,46,0.00,,---,0.00,5.00,VWS V14.01,2013-03-18 10:48:00,
2013-03-18 06:53:00,22.4,4.8,30.46,North,11,2.0,11.0,46,0.00,,---,0.00,9.00,VWS V14.01,2013-03-18 10:53:00,
2013-03-18 06:58:00,22.4,4.8,30.46,NW,312,5.0,11.0,46,0.00,,---,0.00,12.00,VWS V14.01,2013-03-18 10:58:00,
2013-03-18 07:00:00,23.1,4.9,30.43,North,5,3.0,12.0,45,0.00,,,0.00,0.00,VWS V14.01,2013-03-18 11:00:00,
2013-03-18 07:03:00,22.5,4.9,30.46,NNW,329,5.0,5.0,46,0.00,,---,0.00,19.00,VWS V14.01,2013-03-18 11:03:00,
2013-03-18 07:08:00,22.6,5.4,30.47,NW,309,4.0,9.0,47,0.00,,---,0.00,23.00,VWS V14.01,2013-03-18 11:08:00,
2013-03-18 07:13:00,22.7,5.5,30.47,NNW,342,2.0,9.0,47,0.00,,---,0.00,30.00,VWS V14.01,2013-03-18 11:13:00,
2013-03-18 07:15:00,22.7,5.0,30.44,NW,311,2.0,9.0,46,0.00,,,0.00,0.00,VWS V14.01,2013-03-18 11:15:00,
2013-03-18 07:18:00,22.8,5.6,30.47,NNW,332,5.0,6.0,47,0.00,,---,0.00,40.00,VWS V14.01,2013-03-18 11:18:00,
2013-03-18 07:23:00,23.0,5.3,30.47,NNW,336,3.0,8.0,46,0.00,,---,0.00,54.00,VWS V14.01,2013-03-18 11:23:00,
2013-03-18 07:28:00,23.1,5.4,30.47,NW,321,6.0,8.0,46,0.00,,---,0.00,65.00,VWS V14.01,2013-03-18 11:28:00,
2013-03-18 07:30:00,22.6,4.9,30.45,NW,323,4.0,10.0,46,0.00,,,0.00,0.00,VWS V14.01,2013-03-18 11:30:00,
2013-03-18 07:33:00,23.3,5.6,30.47,NW,315,4.0,8.0,46,0.00,,---,0.00,83.00,VWS V14.01,2013-03-18 11:33:00,
2013-03-18 07:38:00,23.5,5.8,30.47,NW,313,3.0,8.0,46,0.00,,---,0.00,98.00,VWS V14.01,2013-03-18 11:38:00,
2013-03-18 07:43:00,23.6,5.9,30.47,NNE,15,1.0,9.0,46,0.00,,---,0.00,118.00,VWS V14.01,2013-03-18 11:43:00,
2013-03-18 07:45:00,23.7,5.5,30.47,NW,320,1.0,9.0,45,0.00,,,0.00,128.00,VWS V14.01,2013-03-18 11:45:00,
2013-03-18 07:48:00,23.8,5.1,30.47,NW,325,7.0,9.0,44,0.00,,---,0.00,137.00,VWS V14.01,2013-03-18 11:48:00,
2013-03-18 07:53:00,23.9,5.2,30.47,North,350,3.0,10.0,44,0.00,,---,0.00,158.00,VWS V14.01,2013-03-18 11:53:00,
2013-03-18 07:58:00,24.2,4.9,30.47,NNW,341,6.0,10.0,43,0.00,,---,0.00,181.00,VWS V14.01,2013-03-18 11:58:00,
2013-03-18 08:00:00,22.5,4.9,30.46,NNW,338,4.0,11.0,46,0.00,,,0.00,16.00,VWS V14.01,2013-03-18 12:00:00,
2013-03-18 08:03:00,24.1,4.8,30.47,NW,320,6.0,8.0,43,0.00,,---,0.00,202.00,VWS V14.01,2013-03-18 12:03:00,
2013-03-18 08:08:00,24.2,4.9,30.47,NW,321,8.0,10.0,43,0.00,,---,0.00,229.00,VWS V14.01,2013-03-18 12:08:00,
2013-03-18 08:13:00,24.5,5.2,30.47,NW,308,8.0,10.0,43,0.00,,---,0.00,253.00,VWS V14.01,2013-03-18 12:13:00,
2013-03-18 08:15:00,22.7,5.5,30.47,NNW,334,4.0,9.0,47,0.00,,,0.00,35.00,VWS V14.01,2013-03-18 12:15:00,
2013-03-18 08:18:00,24.8,5.5,30.47,North,355,4.0,7.0,43,0.00,,---,0.00,271.00,VWS V14.01,2013-03-18 12:18:00,
2013-03-18 08:23:00,25.2,5.3,30.47,NNW,348,4.0,8.0,42,0.00,,---,0.00,294.00,VWS V14.01,2013-03-18 12:23:00,
2013-03-18 08:28:00,25.4,5.5,30.47,NNW,341,4.0,8.0,42,0.00,,---,0.00,304.00,VWS V14.01,2013-03-18 12:28:00,
2013-03-18 08:30:00,25.4,5.5,30.47,NNW,336,4.0,8.0,42,0.00,,,0.00,318.00,VWS V14.01,2013-03-18 12:30:00,
2013-03-18 08:33:00,25.6,6.2,30.47,NW,311,3.0,4.0,43,0.00,,---,0.00,334.00,VWS V14.01,2013-03-18 12:33:00,
2013-03-18 08:38:00,26.0,6.6,30.47,North,355,3.0,7.0,43,0.00,,---,0.00,355.00,VWS V14.01,2013-03-18 12:38:00,
2013-03-18 08:43:00,26.6,6.6,30.47,WNW,302,4.0,7.0,42,0.00,,---,0.00,378.00,VWS V14.01,2013-03-18 12:43:00,
2013-03-18 08:45:00,26.9,6.9,30.47,NW,322,5.0,7.0,42,0.00,,,0.00,385.00,VWS V14.01,2013-03-18 12:45:00,
2013-03-18 08:48:00,26.8,6.8,30.47,NW,306,7.0,10.0,42,0.00,,---,0.00,366.00,VWS V14.01,2013-03-18 12:48:00,
2013-03-18 08:53:00,26.6,7.1,30.47,North,355,6.0,10.0,43,0.00,,---,0.00,406.00,VWS V14.01,2013-03-18 12:53:00,
2013-03-18 08:58:00,26.4,7.5,30.47,NNW,348,4.0,10.0,44,0.00,,---,0.00,411.00,VWS V14.01,2013-03-18 12:58:00,
2013-03-18 09:00:00,24.2,4.4,30.47,NNW,339,8.0,10.0,42,0.00,,,0.00,193.00,VWS V14.01,2013-03-18 13:00:00,
2013-03-18 09:03:00,26.7,7.7,30.47,North,355,6.0,9.0,44,0.00,,---,0.00,432.00,VWS V14.01,2013-03-18 13:03:00,
2013-03-18 09:08:00,26.7,8.7,30.47,NNE,17,6.0,10.0,46,0.00,,---,0.00,311.00,VWS V14.01,2013-03-18 13:08:00,
2013-03-18 09:13:00,26.6,8.6,30.47,NW,320,5.0,10.0,46,0.00,,---,0.00,468.00,VWS V14.01,2013-03-18 13:13:00,
2013-03-18 09:15:00,24.7,5.4,30.47,North,11,5.0,10.0,43,0.00,,,0.00,265.00,VWS V14.01,2013-03-18 13:15:00,
2013-03-18 09:18:00,27.4,9.8,30.47,NNW,347,5.0,5.0,47,0.00,,---,0.00,496.00,VWS V14.01,2013-03-18 13:18:00,
2013-03-18 09:23:00,27.6,9.5,30.46,NNW,348,7.0,11.0,46,0.00,,---,0.00,513.00,VWS V14.01,2013-03-18 13:23:00,
2013-03-18 09:28:00,27.9,10.8,30.46,NNE,33,7.0,11.0,48,0.00,,---,0.00,536.00,VWS V14.01,2013-03-18 13:28:00,
2013-03-18 09:30:00,25.4,5.5,30.47,NNW,336,4.0,8.0,42,0.00,,,0.00,318.00,VWS V14.01,2013-03-18 13:30:00,
2013-03-18 09:33:00,28.1,10.9,30.46,NNE,15,8.0,12.0,48,0.00,,---,0.00,568.00,VWS V14.01,2013-03-18 13:33:00,
2013-03-18 09:38:00,27.9,10.8,30.46,North,360,5.0,12.0,48,0.00,,---,0.00,527.00,VWS V14.01,2013-03-18 13:38:00,
2013-03-18 09:43:00,27.8,11.1,30.46,North,11,7.0,12.0,49,0.00,,---,0.00,575.00,VWS V14.01,2013-03-18 13:43:00,
2013-03-18 09:45:00,27.9,11.7,30.46,NE,38,6.0,12.0,50,0.00,,,0.00,564.00,VWS V14.01,2013-03-18 13:45:00,
2013-03-18 09:48:00,28.1,12.3,30.46,NE,43,6.0,12.0,51,0.00,,---,0.00,543.00,VWS V14.01,2013-03-18 13:48:00,
2013-03-18 09:53:00,28.6,13.2,30.46,NNE,12,7.0,12.0,52,0.00,,---,0.00,527.00,VWS V14.01,2013-03-18 13:53:00,
2013-03-18 09:58:00,28.7,13.8,30.46,NE,49,4.0,12.0,53,0.00,,---,0.00,427.00,VWS V14.01,2013-03-18 13:58:00,
2013-03-18 10:00:00,28.8,13.8,30.46,North,11,7.0,12.0,53,0.00,,,0.00,415.00,VWS V14.01,2013-03-18 14:00:00,
2013-03-18 10:03:00,28.3,12.9,30.46,North,355,4.0,9.0,52,0.00,,---,0.00,504.00,VWS V14.01,2013-03-18 14:03:00,
2013-03-18 10:08:00,28.6,14.1,30.46,NNE,22,8.0,11.0,54,0.00,,---,0.00,466.00,VWS V14.01,2013-03-18 14:08:00,
2013-03-18 10:13:00,28.7,14.2,30.46,NE,53,6.0,14.0,54,0.00,,---,0.00,468.00,VWS V14.01,2013-03-18 14:13:00,
2013-03-18 10:15:00,26.6,8.6,30.47,NW,320,5.0,10.0,46,0.00,,,0.00,468.00,VWS V14.01,2013-03-18 14:15:00,
2013-03-18 10:18:00,28.6,14.5,30.45,NNE,14,3.0,8.0,55,0.00,,---,0.00,455.00,VWS V14.01,2013-03-18 14:18:00,
2013-03-18 10:23:00,28.8,14.7,30.46,NNE,26,5.0,13.0,55,0.00,,---,0.00,478.00,VWS V14.01,2013-03-18 14:23:00,
2013-03-18 10:28:00,29.0,14.9,30.45,ENE,61,6.0,13.0,55,0.00,,---,0.00,441.00,VWS V14.01,2013-03-18 14:28:00,
2013-03-18 10:30:00,28.1,10.5,30.46,North,9,2.0,11.0,47,0.00,,,0.00,545.00,VWS V14.01,2013-03-18 14:30:00,
2013-03-18 10:33:00,29.1,15.0,30.45,ENE,65,8.0,8.0,55,0.00,,---,0.00,468.00,VWS V14.01,2013-03-18 14:33:00,
2013-03-18 10:38:00,29.4,15.2,30.46,ENE,63,10.0,10.0,55,0.00,,---,0.00,496.00,VWS V14.01,2013-03-18 14:38:00,
2013-03-18 10:43:00,29.4,15.2,30.45,ENE,62,2.0,10.0,55,0.00,,---,0.00,489.00,VWS V14.01,2013-03-18 14:43:00,
2013-03-18 10:45:00,29.6,15.4,30.45,NE,53,6.0,10.0,55,0.00,,,0.00,466.00,VWS V14.01,2013-03-18 14:45:00,
2013-03-18 10:49:00,29.6,15.0,30.45,NNE,19,9.0,10.0,54,0.00,,---,0.00,529.00,VWS V14.01,2013-03-18 14:49:00,
2013-03-18 10:54:00,29.6,15.4,30.45,NE,46,10.0,10.0,55,0.00,,---,0.00,552.00,VWS V14.01,2013-03-18 14:54:00,
2013-03-18 10:59:00,29.6,15.0,30.45,NNE,29,12.0,12.0,54,0.00,,---,0.00,461.00,VWS V14.01,2013-03-18 14:59:00,
2013-03-18 11:00:00,29.6,15.4,30.45,NNE,19,8.0,12.0,55,0.00,,,0.00,529.00,VWS V14.01,2013-03-18 15:00:00,
2013-03-18 11:04:00,29.5,15.3,30.45,NNE,32,9.0,10.0,55,0.00,,---,0.00,533.00,VWS V14.01,2013-03-18 15:04:00,
2013-03-18 11:09:00,29.3,15.1,30.44,NNE,28,4.0,11.0,55,0.00,,---,0.00,524.00,VWS V14.01,2013-03-18 15:09:00,
2013-03-18 11:14:00,29.8,15.6,30.44,NNE,30,6.0,11.0,55,0.00,,---,0.00,476.00,VWS V14.01,2013-03-18 15:14:00,
2013-03-18 11:15:00,29.9,16.1,30.44,NE,46,11.0,12.0,56,0.00,,,0.00,547.00,VWS V14.01,2013-03-18 15:15:00,
2013-03-18 11:19:00,30.3,16.1,30.44,NNE,24,7.0,11.0,55,0.00,,---,0.00,591.00,VWS V14.01,2013-03-18 15:19:00,
2013-03-18 11:24:00,30.3,16.1,30.44,NNE,19,8.0,11.0,55,0.00,,---,0.00,629.00,VWS V14.01,2013-03-18 15:24:00,
2013-03-18 11:29:00,30.4,15.8,30.44,ENE,57,6.0,11.0,54,0.00,,---,0.00,640.00,VWS V14.01,2013-03-18 15:29:00,
2013-03-18 11:30:00,30.4,16.2,30.43,North,11,9.0,11.0,55,0.00,,,0.00,687.00,VWS V14.01,2013-03-18 15:30:00,
2013-03-18 11:34:00,30.3,16.5,30.44,NE,34,9.0,11.0,56,0.00,,---,0.00,700.00,VWS V14.01,2013-03-18 15:34:00,
2013-03-18 11:39:00,30.7,16.9,30.43,NE,36,4.0,11.0,56,0.00,,---,0.00,580.00,VWS V14.01,2013-03-18 15:39:00,
2013-03-18 11:44:00,31.2,17.3,30.44,ENE,57,8.0,11.0,56,0.00,,---,0.00,555.00,VWS V14.01,2013-03-18 15:44:00,
2013-03-18 11:45:00,29.6,15.4,30.45,NE,53,6.0,10.0,55,0.00,,,0.00,466.00,VWS V14.01,2013-03-18 15:45:00,
2013-03-18 11:49:00,31.1,17.2,30.44,NE,45,6.0,10.0,56,0.00,,---,0.00,564.00,VWS V14.01,2013-03-18 15:49:00,
2013-03-18 11:54:00,31.3,17.4,30.43,ENE,78,5.0,11.0,56,0.00,,---,0.00,527.00,VWS V14.01,2013-03-18 15:54:00,
2013-03-18 11:59:00,31.3,17.0,30.43,ENE,57,5.0,11.0,55,0.00,,---,0.00,541.00,VWS V14.01,2013-03-18 15:59:00,
2013-03-18 12:00:00,29.6,15.4,30.45,NNE,19,8.0,12.0,55,0.00,,,0.00,529.00,VWS V14.01,2013-03-18 16:00:00,
2013-03-18 12:04:00,31.5,17.2,30.43,ENE,67,7.0,11.0,55,0.00,,---,0.00,617.00,VWS V14.01,2013-03-18 16:04:00,
2013-03-18 12:09:00,31.5,17.2,30.43,East,92,6.0,11.0,55,0.00,,---,0.00,645.00,VWS V14.01,2013-03-18 16:09:00,
2013-03-18 12:14:00,31.8,17.5,30.43,ENE,57,6.0,11.0,55,0.00,,---,0.00,599.00,VWS V14.01,2013-03-18 16:14:00,
2013-03-18 12:15:00,31.9,17.6,30.43,ENE,74,5.0,11.0,55,0.00,,,0.00,603.00,VWS V14.01,2013-03-18 16:15:00,
2013-03-18 12:19:00,32.0,17.2,30.43,ENE,71,4.0,6.0,54,0.00,,---,0.00,671.00,VWS V14.01,2013-03-18 16:19:00,
2013-03-18 12:24:00,32.4,18.5,30.43,NE,54,4.0,7.0,56,0.00,,---,0.00,693.00,VWS V14.01,2013-03-18 16:24:00,
2013-03-18 12:29:00,32.9,18.5,30.43,ESE,117,8.0,8.0,55,0.00,,---,0.00,795.00,VWS V14.01,2013-03-18 16:29:00,
2013-03-18 12:30:00,33.0,18.6,30.43,ESE,123,5.0,8.0,55,0.00,,,0.00,823.00,VWS V14.01,2013-03-18 16:30:00,
2013-03-18 12:34:00,33.4,19.4,30.43,SE,142,4.0,6.0,56,0.00,,---,0.00,765.00,VWS V14.01,2013-03-18 16:34:00,
2013-03-18 12:39:00,34.1,18.8,30.43,East,97,4.0,8.0,53,0.00,,---,0.00,726.00,VWS V14.01,2013-03-18 16:39:00,
2013-03-18 12:44:00,33.8,18.0,30.42,SE,126,6.0,8.0,52,0.00,,---,0.00,737.00,VWS V14.01,2013-03-18 16:44:00,
2013-03-18 12:45:00,31.2,16.5,30.43,NNE,26,5.0,11.0,54,0.00,,,0.00,552.00,VWS V14.01,2013-03-18 16:45:00,
2013-03-18 12:49:00,33.8,18.5,30.43,SE,124,7.0,8.0,53,0.00,,---,0.00,650.00,VWS V14.01,2013-03-18 16:49:00,
2013-03-18 12:54:00,33.7,18.4,30.43,SE,127,7.0,8.0,53,0.00,,---,0.00,663.00,VWS V14.01,2013-03-18 16:54:00,
2013-03-18 12:59:00,33.7,18.0,30.42,East,84,3.0,8.0,52,0.00,,---,0.00,722.00,VWS V14.01,2013-03-18 16:59:00,
2013-03-18 13:00:00,31.4,17.5,30.43,East,80,8.0,11.0,56,0.00,,,0.00,573.00,VWS V14.01,2013-03-18 17:00:00,
2013-03-18 13:04:00,33.8,18.5,30.43,SE,146,4.0,6.0,53,0.00,,---,0.00,800.00,VWS V14.01,2013-03-18 17:04:00,
2013-03-18 13:09:00,34.3,19.0,30.42,East,101,4.0,7.0,53,0.00,,---,0.00,738.00,VWS V14.01,2013-03-18 17:09:00,
2013-03-18 13:14:00,34.9,19.5,30.43,SE,146,2.0,7.0,53,0.00,,---,0.00,715.00,VWS V14.01,2013-03-18 17:14:00,
2013-03-18 13:15:00,35.2,20.2,30.43,SE,130,9.0,9.0,54,0.00,,,0.00,684.00,VWS V14.01,2013-03-18 17:15:00,
2013-03-18 13:19:00,35.5,19.2,30.42,ESE,110,6.0,9.0,51,0.00,,---,0.00,735.00,VWS V14.01,2013-03-18 17:19:00,
2013-03-18 13:24:00,35.5,18.2,30.42,SE,128,6.0,9.0,49,0.00,,---,0.00,700.00,VWS V14.01,2013-03-18 17:24:00,
2013-03-18 13:29:00,35.7,19.4,30.42,SE,134,8.0,11.0,51,0.00,,---,0.00,656.00,VWS V14.01,2013-03-18 17:29:00,
2013-03-18 13:30:00,33.0,18.6,30.43,ESE,123,5.0,8.0,55,0.00,,,0.00,823.00,VWS V14.01,2013-03-18 17:30:00,
2013-03-18 13:34:00,36.0,18.7,30.42,ESE,119,6.0,7.0,49,0.00,,---,0.00,564.00,VWS V14.01,2013-03-18 17:34:00,
2013-03-18 13:39:00,36.0,18.2,30.42,SE,132,5.0,7.0,48,0.00,,---,0.00,526.00,VWS V14.01,2013-03-18 17:39:00,
2013-03-18 13:45:00,36.0,19.2,30.41,East,92,6.0,8.0,50,0.00,,---,0.00,473.00,VWS V14.01,2013-03-18 17:45:00,
2013-03-18 13:50:00,35.3,18.5,30.41,East,88,5.0,8.0,50,0.00,,---,0.00,476.00,VWS V14.01,2013-03-18 17:50:00,
2013-03-18 13:55:00,35.2,18.9,30.41,East,94,5.0,8.0,51,0.00,,---,0.00,450.00,VWS V14.01,2013-03-18 17:55:00,
2013-03-18 14:00:00,35.3,19.5,30.41,ESE,122,7.0,8.0,52,0.00,,---,0.00,475.00,VWS V14.01,2013-03-18 18:00:00,
2013-03-18 14:05:00,35.5,18.7,30.41,SE,132,6.0,7.0,50,0.00,,---,0.00,466.00,VWS V14.01,2013-03-18 18:05:00,
2013-03-18 14:10:00,35.6,18.3,30.41,ESE,116,1.0,9.0,49,0.00,,---,0.00,441.00,VWS V14.01,2013-03-18 18:10:00,
2013-03-18 14:15:00,35.8,18.0,30.40,SE,140,2.0,9.0,48,0.00,,---,0.00,420.00,VWS V14.01,2013-03-18 18:15:00,
2013-03-18 14:20:00,35.6,19.3,30.40,SE,127,6.0,7.0,51,0.00,,---,0.00,425.00,VWS V14.01,2013-03-18 18:20:00,
2013-03-18 14:25:00,35.7,18.9,30.40,SE,126,5.0,7.0,50,0.00,,---,0.00,408.00,VWS V14.01,2013-03-18 18:25:00,
2013-03-18 14:30:00,35.9,18.1,30.40,SE,128,6.0,7.0,48,0.00,,---,0.00,445.00,VWS V14.01,2013-03-18 18:30:00,
2013-03-18 14:35:00,36.0,17.7,30.40,SE,125,6.0,7.0,47,0.00,,---,0.00,462.00,VWS V14.01,2013-03-18 18:35:00,
2013-03-18 14:40:00,36.1,18.8,30.39,SE,132,8.0,8.0,49,0.00,,---,0.00,459.00,VWS V14.01,2013-03-18 18:40:00,
2013-03-18 14:45:00,36.1,18.8,30.39,ESE,119,6.0,9.0,49,0.00,,---,0.00,531.00,VWS V14.01,2013-03-18 18:45:00,
2013-03-18 14:50:00,35.9,18.6,30.38,ESE,121,7.0,9.0,49,0.00,,---,0.00,457.00,VWS V14.01,2013-03-18 18:50:00,
2013-03-18 14:55:00,35.2,18.0,30.38,ESE,104,8.0,11.0,49,0.00,,---,0.00,473.00,VWS V14.01,2013-03-18 18:55:00,
2013-03-18 15:00:00,34.7,18.4,30.38,ESE,108,9.0,11.0,51,0.00,,---,0.00,415.00,VWS V14.01,2013-03-18 19:00:00,
2013-03-18 15:05:00,34.7,18.4,30.38,ESE,110,8.0,9.0,51,0.00,,---,0.00,378.00,VWS V14.01,2013-03-18 19:05:00,
2013-03-18 15:10:00,34.6,18.3,30.38,ESE,111,8.0,11.0,51,0.00,,---,0.00,334.00,VWS V14.01,2013-03-18 19:10:00,
2013-03-18 15:15:00,34.6,18.8,30.38,ESE,117,9.0,11.0,52,0.00,,---,0.00,327.00,VWS V14.01,2013-03-18 19:15:00,
2013-03-18 15:20:00,34.4,19.0,30.38,ESE,111,7.0,9.0,53,0.00,,---,0.00,299.00,VWS V14.01,2013-03-18 19:20:00,
2013-03-18 15:25:00,34.5,20.0,30.38,ESE,111,8.0,12.0,55,0.00,,---,0.00,288.00,VWS V14.01,2013-03-18 19:25:00,
2013-03-18 15:30:00,34.4,19.9,30.37,East,101,12.0,12.0,55,0.00,,---,0.00,281.00,VWS V14.01,2013-03-18 19:30:00,
2013-03-18 15:35:00,34.3,21.5,30.37,ESE,104,11.0,13.0,59,0.00,,---,0.00,272.00,VWS V14.01,2013-03-18 19:35:00,
2013-03-18 15:40:00,34.3,21.1,30.37,ESE,117,8.0,14.0,58,0.00,,---,0.00,253.00,VWS V14.01,2013-03-18 19:40:00,
2013-03-18 15:45:00,34.2,21.0,30.37,ESE,116,14.0,14.0,58,0.00,,---,0.00,236.00,VWS V14.01,2013-03-18 19:45:00,
2013-03-18 15:50:00,34.0,21.6,30.36,East,92,9.0,11.0,60,0.00,,---,0.00,214.00,VWS V14.01,2013-03-18 19:50:00,
2013-03-18 15:55:00,33.7,21.3,30.36,ESE,107,9.0,13.0,60,0.00,,---,0.00,207.00,VWS V14.01,2013-03-18 19:55:00,
2013-03-18 16:00:00,33.8,21.8,30.36,East,90,12.0,14.0,61,0.00,,---,0.00,202.00,VWS V14.01,2013-03-18 20:00:00,
2013-03-18 16:05:00,33.5,21.1,30.36,ESE,109,9.0,13.0,60,0.00,,---,0.00,199.00,VWS V14.01,2013-03-18 20:05:00,
2013-03-18 16:10:00,33.4,20.6,30.36,ESE,109,12.0,13.0,59,0.00,,---,0.00,200.00,VWS V14.01,2013-03-18 20:10:00,
2013-03-18 16:15:00,33.5,21.5,30.36,ESE,109,9.0,13.0,61,0.00,,---,0.00,197.00,VWS V14.01,2013-03-18 20:15:00,
2013-03-18 16:20:00,33.7,21.7,30.36,ESE,109,12.0,12.0,61,0.00,,---,0.00,190.00,VWS V14.01,2013-03-18 20:20:00,
2013-03-18 16:25:00,33.9,21.9,30.36,East,97,11.0,13.0,61,0.00,,---,0.00,190.00,VWS V14.01,2013-03-18 20:25:00,
2013-03-18 16:30:00,33.9,21.9,30.36,ESE,120,7.0,13.0,61,0.00,,---,0.00,172.00,VWS V14.01,2013-03-18 20:30:00,
2013-03-18 16:35:00,33.9,21.9,30.36,ESE,109,8.0,13.0,61,0.00,,---,0.00,153.00,VWS V14.01,2013-03-18 20:35:00,
2013-03-18 16:40:00,33.7,22.5,30.36,SE,135,12.0,14.0,63,0.00,,---,0.00,135.00,VWS V14.01,2013-03-18 20:40:00,
2013-03-18 16:45:00,33.9,22.6,30.35,SE,144,9.0,14.0,63,0.00,,---,0.00,127.00,VWS V14.01,2013-03-18 20:45:00,
2013-03-18 16:50:00,34.0,22.4,30.35,ESE,113,11.0,11.0,62,0.00,,---,0.00,114.00,VWS V14.01,2013-03-18 20:50:00,
2013-03-18 16:55:00,33.8,22.9,30.34,ESE,105,14.0,14.0,64,0.00,,---,0.00,102.00,VWS V14.01,2013-03-18 20:55:00,
2013-03-18 17:00:00,33.7,22.1,30.34,SE,130,8.0,14.0,62,0.00,,---,0.00,98.00,VWS V14.01,2013-03-18 21:00:00,
2013-03-18 17:05:00,33.8,22.5,30.33,ESE,123,12.0,12.0,63,0.00,,---,0.00,90.00,VWS V14.01,2013-03-18 21:05:00,
2013-03-18 17:10:00,33.7,22.5,30.33,ESE,119,12.0,13.0,63,0.00,,---,0.00,79.00,VWS V14.01,2013-03-18 21:10:00,
2013-03-18 17:15:00,33.7,22.1,30.33,ESE,123,13.0,13.0,62,0.00,,---,0.00,81.00,VWS V14.01,2013-03-18 21:15:00,
2013-03-18 17:20:00,33.7,22.1,30.32,ESE,109,12.0,13.0,62,0.00,,---,0.00,81.00,VWS V14.01,2013-03-18 21:20:00,
2013-03-18 17:25:00,33.7,22.5,30.32,ESE,123,11.0,15.0,63,0.00,,---,0.00,69.00,VWS V14.01,2013-03-18 21:25:00,
2013-03-18 17:30:00,33.7,22.5,30.32,SE,126,8.0,15.0,63,0.00,,---,0.00,62.00,VWS V14.01,2013-03-18 21:30:00,
2013-03-18 17:35:00,33.6,23.1,30.33,ESE,123,16.0,16.0,65,0.00,,---,0.00,58.00,VWS V14.01,2013-03-18 21:35:00,
2013-03-18 17:40:00,33.4,22.9,30.33,ESE,108,11.0,16.0,65,0.00,,---,0.00,53.00,VWS V14.01,2013-03-18 21:40:00,
2013-03-18 17:45:00,33.2,23.1,30.33,ESE,115,12.0,16.0,66,0.00,,---,0.00,49.00,VWS V14.01,2013-03-18 21:45:00,
2013-03-18 17:51:00,33.2,22.7,30.33,ESE,116,14.0,16.0,65,0.00,,---,0.00,42.00,VWS V14.01,2013-03-18 21:51:00,
2013-03-18 17:56:00,33.2,22.7,30.34,ESE,114,13.0,16.0,65,0.00,,---,0.00,33.00,VWS V14.01,2013-03-18 21:56:00,
2013-03-18 18:00:00,33.7,22.1,30.34,ESE,120,8.0,14.0,62,0.00,,,0.00,97.00,VWS V14.01,2013-03-18 22:00:00,
2013-03-18 18:01:00,33.2,23.1,30.33,ESE,107,13.0,16.0,66,0.00,,---,0.00,32.00,VWS V14.01,2013-03-18 22:01:00,
2013-03-18 18:06:00,33.1,22.6,30.33,East,100,12.0,16.0,65,0.00,,---,0.00,26.00,VWS V14.01,2013-03-18 22:06:00,
2013-03-18 18:11:00,33.0,22.2,30.33,ESE,109,13.0,16.0,64,0.00,,---,0.00,21.00,VWS V14.01,2013-03-18 22:11:00,
2013-03-18 18:15:00,33.7,22.1,30.33,ESE,120,13.0,13.0,62,0.00,,,0.00,81.00,VWS V14.01,2013-03-18 22:15:00,
2013-03-18 18:16:00,33.0,22.2,30.33,ESE,123,14.0,16.0,64,0.00,,---,0.00,14.00,VWS V14.01,2013-03-18 22:16:00,
2013-03-18 18:21:00,33.0,22.2,30.32,ESE,103,12.0,14.0,64,0.00,,---,0.00,11.00,VWS V14.01,2013-03-18 22:21:00,
2013-03-18 18:26:00,32.9,22.4,30.32,ESE,109,12.0,15.0,65,0.00,,---,0.00,9.00,VWS V14.01,2013-03-18 22:26:00,
2013-03-18 18:30:00,33.7,22.8,30.32,SE,126,14.0,15.0,64,0.00,,,0.00,62.00,VWS V14.01,2013-03-18 22:30:00,
2013-03-18 18:31:00,32.9,22.1,30.32,ESE,113,12.0,15.0,64,0.00,,---,0.00,7.00,VWS V14.01,2013-03-18 22:31:00,
2013-03-18 18:36:00,32.9,21.7,30.33,ESE,110,11.0,12.0,63,0.00,,---,0.00,5.00,VWS V14.01,2013-03-18 22:36:00,
2013-03-18 18:41:00,32.9,22.4,30.33,SE,134,13.0,15.0,65,0.00,,---,0.00,0.00,VWS V14.01,2013-03-18 22:41:00,
2013-03-18 18:45:00,33.2,23.1,30.33,ESE,113,14.0,16.0,66,0.00,,,0.00,49.00,VWS V14.01,2013-03-18 22:45:00,
2013-03-18 18:46:00,32.8,22.0,30.33,ESE,121,12.0,15.0,64,0.00,,---,0.00,0.00,VWS V14.01,2013-03-18 22:46:00,
2013-03-18 18:51:00,32.8,22.3,30.33,ESE,119,13.0,14.0,65,0.00,,---,0.00,0.00,VWS V14.01,2013-03-18 22:51:00,
2013-03-18 18:56:00,32.8,22.0,30.33,ESE,120,9.0,14.0,64,0.00,,---,0.00,0.00,VWS V14.01,2013-03-18 22:56:00,
2013-03-18 19:00:00,33.2,23.1,30.33,ESE,110,11.0,16.0,66,0.00,,,0.00,32.00,VWS V14.01,2013-03-18 23:00:00,
2013-03-18 19:01:00,32.8,22.3,30.33,SE,129,12.0,14.0,65,0.00,,---,0.00,0.00,VWS V14.01,2013-03-18 23:01:00,
2013-03-18 19:06:00,32.8,22.7,30.33,SE,127,11.0,13.0,66,0.00,,---,0.00,0.00,VWS V14.01,2013-03-18 23:06:00,
2013-03-18 19:11:00,32.8,22.3,30.33,East,101,12.0,13.0,65,0.00,,---,0.00,0.00,VWS V14.01,2013-03-18 23:11:00,
2013-03-18 19:15:00,33.0,22.2,30.33,SE,124,11.0,16.0,64,0.00,,,0.00,14.00,VWS V14.01,2013-03-18 23:15:00,
2013-03-18 19:16:00,32.7,22.2,30.33,ESE,109,9.0,12.0,65,0.00,,---,0.00,0.00,VWS V14.01,2013-03-18 23:16:00,
2013-03-18 19:21:00,32.7,22.6,30.34,ESE,109,14.0,15.0,66,0.00,,---,0.00,0.00,VWS V14.01,2013-03-18 23:21:00,
2013-03-18 19:26:00,32.8,22.3,30.34,SE,137,11.0,15.0,65,0.00,,---,0.00,0.00,VWS V14.01,2013-03-18 23:26:00,
2013-03-18 19:30:00,32.9,22.1,30.32,ESE,121,9.0,15.0,64,0.00,,,0.00,7.00,VWS V14.01,2013-03-18 23:30:00,
2013-03-18 19:31:00,32.8,23.1,30.34,SE,124,11.0,11.0,67,0.00,,---,0.00,0.00,VWS V14.01,2013-03-18 23:31:00,
2013-03-18 19:36:00,32.8,23.1,30.34,SE,142,11.0,15.0,67,0.00,,---,0.00,0.00,VWS V14.01,2013-03-18 23:36:00,
2013-03-18 19:41:00,32.8,22.7,30.33,ESE,117,13.0,15.0,66,0.00,,---,0.00,0.00,VWS V14.01,2013-03-18 23:41:00,
2013-03-18 19:45:00,32.8,22.0,30.33,ESE,113,13.0,15.0,64,0.00,,,0.00,0.00,VWS V14.01,2013-03-18 23:45:00,
2013-03-18 19:46:00,32.8,23.1,30.33,ESE,123,16.0,16.0,67,0.00,,---,0.00,0.00,VWS V14.01,2013-03-18 23:46:00,
2013-03-18 19:51:00,32.8,23.1,30.32,ESE,109,12.0,16.0,67,0.00,,---,0.00,0.00,VWS V14.01,2013-03-18 23:51:00,
2013-03-18 19:56:00,32.7,23.0,30.33,ESE,111,12.0,16.0,67,0.00,,---,0.00,0.00,VWS V14.01,2013-03-18 23:56:00,
2013-03-18 20:00:00,32.8,22.3,30.33,SE,134,12.0,14.0,65,0.00,,,0.00,0.00,VWS V14.01,2013-03-19 00:00:00,
2013-03-18 20:01:00,32.8,23.1,30.33,SE,125,13.0,14.0,67,0.00,,---,0.00,0.00,VWS V14.01,2013-03-19 00:01:00,
2013-03-18 20:06:00,32.8,23.1,30.32,ESE,123,13.0,18.0,67,0.00,,---,0.00,0.00,VWS V14.01,2013-03-19 00:06:00,
2013-03-18 20:11:00,32.9,23.5,30.32,ESE,105,13.0,18.0,68,0.00,,---,0.00,0.00,VWS V14.01,2013-03-19 00:11:00,
2013-03-18 20:15:00,32.9,23.5,30.32,SE,125,11.0,18.0,68,0.00,,,0.00,0.00,VWS V14.01,2013-03-19 00:15:00,
2013-03-18 20:17:00,32.9,23.5,30.32,ESE,119,14.0,15.0,68,0.00,,---,0.00,0.00,VWS V14.01,2013-03-19 00:17:00,
2013-03-18 20:22:00,33.0,24.0,30.32,SE,130,14.0,18.0,69,0.00,,---,0.00,0.00,VWS V14.01,2013-03-19 00:22:00,
2013-03-18 20:27:00,33.0,24.0,30.32,ESE,115,15.0,18.0,69,0.00,,---,0.00,0.00,VWS V14.01,2013-03-19 00:27:00,
2013-03-18 20:30:00,33.0,24.0,30.32,ESE,108,18.0,19.0,69,0.00,,,0.00,0.00,VWS V14.01,2013-03-19 00:30:00,
2013-03-18 20:32:00,33.0,24.0,30.31,ESE,115,14.0,18.0,69,0.00,,---,0.00,0.00,VWS V14.01,2013-03-19 00:32:00,
2013-03-18 20:37:00,33.0,24.0,30.31,ESE,113,14.0,19.0,69,0.00,,---,0.00,0.00,VWS V14.01,2013-03-19 00:37:00,
2013-03-18 20:42:00,33.0,24.0,30.31,ESE,110,16.0,20.0,69,0.00,,---,0.00,0.00,VWS V14.01,2013-03-19 00:42:00,
2013-03-18 20:45:00,32.8,23.1,30.33,SE,126,14.0,16.0,67,0.00,,,0.00,0.00,VWS V14.01,2013-03-19 00:45:00,
2013-03-18 20:47:00,33.1,24.4,30.31,ESE,112,14.0,19.0,70,0.00,,---,0.00,0.00,VWS V14.01,2013-03-19 00:47:00,
2013-03-18 20:52:00,33.1,24.4,30.31,ESE,122,16.0,23.0,70,0.00,,---,0.00,0.00,VWS V14.01,2013-03-19 00:52:00,
2013-03-18 20:57:00,33.2,24.5,30.31,SE,128,9.0,23.0,70,0.00,,---,0.00,0.00,VWS V14.01,2013-03-19 00:57:00,
2013-03-18 21:00:00,33.2,24.8,30.31,SE,128,15.0,23.0,71,0.00,,,0.00,0.00,VWS V14.01,2013-03-19 01:00:00,
2013-03-18 21:02:00,33.3,24.9,30.31,ESE,108,15.0,19.0,71,0.00,,---,0.00,0.00,VWS V14.01,2013-03-19 01:02:00,
2013-03-18 21:07:00,33.3,24.9,30.30,East,95,16.0,19.0,71,0.00,,---,0.00,0.00,VWS V14.01,2013-03-19 01:07:00,
2013-03-18 21:12:00,33.3,24.9,30.31,ESE,120,16.0,19.0,71,0.00,,---,0.00,0.00,VWS V14.01,2013-03-19 01:12:00,
2013-03-18 21:15:00,33.4,25.0,30.30,ESE,117,18.0,22.0,71,0.00,,,0.00,0.00,VWS V14.01,2013-03-19 01:15:00,
2013-03-18 21:17:00,33.4,25.0,30.30,ESE,114,19.0,20.0,71,0.00,,---,0.00,0.00,VWS V14.01,2013-03-19 01:17:00,
2013-03-18 21:22:00,33.5,25.5,30.30,ESE,115,18.0,20.0,72,0.00,,---,0.00,0.00,VWS V14.01,2013-03-19 01:22:00,
2013-03-18 21:27:00,33.5,25.1,30.30,ESE,112,12.0,22.0,71,0.00,,---,0.00,0.00,VWS V14.01,2013-03-19 01:27:00,
2013-03-18 21:30:00,33.5,25.1,30.30,ESE,115,12.0,22.0,71,0.00,,,0.00,0.00,VWS V14.01,2013-03-19 01:30:00,
2013-03-18 21:32:00,33.5,25.8,30.30,ESE,118,15.0,20.0,73,0.00,,---,0.00,0.00,VWS V14.01,2013-03-19 01:32:00,
2013-03-18 21:38:00,33.5,25.8,30.30,ESE,113,21.0,22.0,73,0.00,,---,0.00,0.00,VWS V14.01,2013-03-19 01:38:00,
2013-03-18 21:43:00,33.5,25.1,30.30,ESE,111,21.0,22.0,71,0.00,,---,0.00,0.00,VWS V14.01,2013-03-19 01:43:00,
2013-03-18 21:45:00,33.0,24.0,30.31,ESE,114,18.0,20.0,69,0.00,,,0.00,0.00,VWS V14.01,2013-03-19 01:45:00,
2013-03-18 21:48:00,33.5,25.1,30.29,ESE,110,19.0,21.0,71,0.00,,---,0.00,0.00,VWS V14.01,2013-03-19 01:48:00,
2013-03-18 21:53:00,33.5,24.8,30.29,East,100,14.0,21.0,70,0.00,,---,0.00,0.00,VWS V14.01,2013-03-19 01:53:00,
2013-03-18 21:58:00,33.5,25.1,30.29,ESE,104,19.0,21.0,71,0.00,,---,0.00,0.00,VWS V14.01,2013-03-19 01:58:00,
2013-03-18 22:00:00,33.2,24.8,30.31,SE,128,15.0,23.0,71,0.00,,,0.00,0.00,VWS V14.01,2013-03-19 02:00:00,
2013-03-18 22:03:00,33.7,26.0,30.29,ESE,105,15.0,21.0,73,0.00,,---,0.00,0.00,VWS V14.01,2013-03-19 02:03:00,
2013-03-18 22:08:00,33.7,25.6,30.28,ESE,115,14.0,22.0,72,0.00,,---,0.00,0.00,VWS V14.01,2013-03-19 02:08:00,
2013-03-18 22:13:00,33.8,26.4,30.28,East,99,18.0,22.0,74,0.00,,---,0.00,0.00,VWS V14.01,2013-03-19 02:13:00,
2013-03-18 22:15:00,33.4,25.0,30.30,ESE,117,18.0,22.0,71,0.00,,,0.00,0.00,VWS V14.01,2013-03-19 02:15:00,
2013-03-18 22:18:00,33.8,26.1,30.28,ESE,109,16.0,21.0,73,0.00,,---,0.00,0.00,VWS V14.01,2013-03-19 02:18:00,
2013-03-18 22:23:00,33.9,26.2,30.28,ESE,102,19.0,22.0,73,0.00,,---,0.00,0.00,VWS V14.01,2013-03-19 02:23:00,
2013-03-18 22:28:00,34.0,26.3,30.28,ESE,107,20.0,23.0,73,0.00,,---,0.00,0.00,VWS V14.01,2013-03-19 02:28:00,
2013-03-18 22:30:00,34.0,26.3,30.28,ESE,111,22.0,23.0,73,0.00,,,0.00,0.00,VWS V14.01,2013-03-19 02:30:00,
2013-03-18 22:33:00,34.0,25.9,30.28,ESE,115,20.0,22.0,72,0.00,,---,0.00,0.00,VWS V14.01,2013-03-19 02:33:00,
2013-03-18 22:38:00,34.1,26.7,30.28,SE,138,19.0,22.0,74,0.00,,---,0.00,0.00,VWS V14.01,2013-03-19 02:38:00,
2013-03-18 22:43:00,34.1,26.4,30.28,East,101,21.0,23.0,73,0.00,,---,0.00,0.00,VWS V14.01,2013-03-19 02:43:00,
2013-03-18 22:45:00,34.1,26.7,30.27,East,101,14.0,23.0,74,0.00,,,0.00,0.00,VWS V14.01,2013-03-19 02:45:00,
2013-03-18 22:48:00,34.1,26.4,30.27,ESE,105,18.0,20.0,73,0.00,,---,0.00,0.00,VWS V14.01,2013-03-19 02:48:00,
2013-03-18 22:53:00,34.1,26.0,30.27,East,94,15.0,21.0,72,0.00,,---,0.00,0.00,VWS V14.01,2013-03-19 02:53:00,
2013-03-18 22:58:00,34.1,26.4,30.26,ESE,117,16.0,21.0,73,0.00,,---,0.00,0.00,VWS V14.01,2013-03-19 02:58:00,
2013-03-18 23:00:00,34.1,26.4,30.26,East,98,15.0,21.0,73,0.00,,,0.00,0.00,VWS V14.01,2013-03-19 03:00:00,
2013-03-18 23:03:00,34.1,26.4,30.26,ESE,107,19.0,20.0,73,0.00,,---,0.00,0.00,VWS V14.01,2013-03-19 03:03:00,
2013-03-18 23:08:00,34.2,26.8,30.26,ESE,106,23.0,23.0,74,0.00,,---,0.00,0.00,VWS V14.01,2013-03-19 03:08:00,
2013-03-18 23:13:00,34.2,26.1,30.26,ESE,107,21.0,23.0,72,0.00,,---,0.00,0.00,VWS V14.01,2013-03-19 03:13:00,
2013-03-18 23:15:00,33.8,26.4,30.29,ESE,102,14.0,22.0,74,0.00,,,0.00,0.00,VWS V14.01,2013-03-19 03:15:00,
2013-03-18 23:18:00,34.2,26.1,30.26,ESE,107,18.0,22.0,72,0.00,,---,0.00,0.00,VWS V14.01,2013-03-19 03:18:00,
2013-03-18 23:23:00,34.2,26.5,30.26,ESE,110,13.0,24.0,73,0.00,,---,0.00,0.00,VWS V14.01,2013-03-19 03:23:00,
2013-03-18 23:28:00,34.2,26.5,30.25,East,96,20.0,25.0,73,0.00,,---,0.00,0.00,VWS V14.01,2013-03-19 03:28:00,
2013-03-18 23:30:00,34.0,26.3,30.28,ESE,111,22.0,23.0,73,0.00,,,0.00,0.00,VWS V14.01,2013-03-19 03:30:00,
2013-03-18 23:33:00,34.3,26.9,30.25,East,94,21.0,21.0,74,0.00,,---,0.00,0.00,VWS V14.01,2013-03-19 03:33:00,
2013-03-18 23:38:00,34.3,26.6,30.25,ESE,109,21.0,22.0,73,0.00,,---,0.00,0.00,VWS V14.01,2013-03-19 03:38:00,
2013-03-18 23:43:00,34.4,27.0,30.26,East,94,21.0,22.0,74,0.00,,---,0.00,0.00,VWS V14.01,2013-03-19 03:43:00,
2013-03-18 23:45:00,34.1,26.7,30.27,East,101,14.0,23.0,74,0.00,,,0.00,0.00,VWS V14.01,2013-03-19 03:45:00,
2013-03-18 23:48:00,34.3,26.9,30.25,ESE,111,18.0,23.0,74,0.00,,---,0.00,0.00,VWS V14.01,2013-03-19 03:48:00,
2013-03-18 23:53:00,33.8,27.7,30.25,ENE,69,15.0,24.0,78,0.00,,---,0.00,0.00,VWS V14.01,2013-03-19 03:53:00,
2013-03-18 23:58:00,33.0,28.7,30.25,ESE,107,18.0,24.0,84,0.00,,---,0.00,0.00,VWS V14.01,2013-03-19 03:58:00,